QZS-3 (QZSS/PRN 189)

Last updated on Aug. 5, 2020, 5:34 a.m. UTC

1 42917U 17048A   20217.81868035 -.00000365  00000-0  00000+0 0  9998
2 42917   0.0651 229.1477 0001038 272.7847 233.6520  1.00273161 10898
UTC
Height (km)
Latitude
Longitude
Inclination
Orbital Period
UTC large
Height (km)
Speed (km/s)
/
Latitude / Longitude
Inclination (degrees)
Orbital Period (minutes)
Azimuth
Elevation
Range (km)
Doppler Factor
iOS Compass Heading
iOS Angle

Next 30 passes for location: Hong Kong

Rise time Rise Azimuth (degrees) Set time Set Azimuth (degrees) Duration Max altitude (degrees)

No matching passes for this satellites